STARLINK-32289, 60737

Orbit data source: Space-Track

STARLINK-32289, 60737 is a payload satellite owned by SpaceX/Seattle (US) in LEO that was launched on Wed, 28 Aug 2024 UTC via an FALCON 9 launch vehicle from the Air Force Eastern Test Range (AFETR). Payload-class satellites include a variety of spacecraft equipped with specific instruments for various scientific and technological missions. These include communications satellites like Starlink; space stations such as the ISS; scientific satellites like the Hubble; Earth observation satellites from companies like Planet Labs, Umbra, and HawkEye 360; GPS; miniature CubeSats for education and research; and military/defense satellites.

Loading next visibility...
Identifier
60737, 2024-152T
Orbit
LEO
Country
Flag of USUS
Related business
Manufacturer
SpaceX/Seattle
Mission
Operational Commercial Communications
Bus & Motor
STARLINK V2M, Unknown motor
Mass
730 kg wet, ~700 kg dry
Launch date (UTC)
2024-08-28 (1 year ago)
Launch vehicle
FALCON 9
Launch site
Air Force Eastern Test Range (AFETR)
Object type
Payload
Rocket body
Debris
Shape & HBR
Box + 2 Pan, 17.7 m
Radar Cross Section
33.884 m², Large (>1 m²)

Expand to show TLE details & history
Last TLE update: 20 hours ago

TLE from 20 hours ago
0 STARLINK-32289
1 60737U 24152T   25310.87371697  .00000817  00000-0  39719-4 0  9995
2 60737  53.1596 119.1473 0001390  85.2791 274.8369 15.30195079 68042
Epoch: 2025-11-06T20:58Z
TLE epoch observation values (Epoch: 2025-11-06T20:58:09.146Z)
Latitude
0.00004°
Longitude
118.28344°
Altitude
476.049 km
Speed
7.629 km/s
True Right ascension
07h 56m 35s
True Declination
0° 00' 00"
Sunlit
Object was in daylight at epoch
Visualization orbit readout
Latitude
Unknown
Longitude
Unknown
Altitude
Unknown
Speed
Unknown
Apparent Right ascension
Unknown
Apparent Declination
Unknown
Sunlit
N/A
Visualization observer readout
Local Sidereal Time
13:18:18
Azimuth
Unknown
Elevation
Unknown
Doppler factor
Unknown
Orbital elements
Apogee altitude
476.439 km
Perigee altitude
474.534 km
Semi-major axis
6,853.623 km
Eccentricity
0.00014
Inclination
53.1596°
RAAN
119.1473°
Arg. of periapsis
85.2791°
True anomaly
274.82103°
Mean anomaly
274.8369°
Eccentric anomaly
274.82896°
Mean motion
3.82528 °/min
Orbital period
94.11 mins
BSTAR
0.000039719
Loading maneuver chart data...
Computing Atmospheric mass density...
Loading historical data...
Loading historical data...
Loading historical data...
Loading historical data...
Loading historical data...
Loading historical data...
Loading historical data...

Documentation

Showing up to 5 results
|